Tracking 25710 objects as of 5-Jul-2022
HD Live streaming from Space Station
objects crossing your sky now

FENGYUN 1C DEB

Track FENGYUN 1C DEB now!
10-day predictions


NORAD ID: 30570
Int'l Code: 1999-025ALL
Perigee: 835.9 km
Apogee: 889.5 km
Inclination: 98.9 °
Period: 102.0 minutes
Semi major axis: 7233 km
RCS: 0.044 m2 (small)
Launch date: May 10, 1999
Source: People's Republic of China (PRC)
Launch site: Taiyaun Space Center, China (TSC)

Note: This is SATELLITE DEBRIS
aabbcc
Your satellite tracking list
Your tracking list is empty




NASA's NSSDC Master Catalog

Two Line Element Set (TLE):
1 30570U 99025ALL 22185.67042604  .00000275  00000-0  17605-3 0  9993
2 30570  98.8557 226.5136 0037074 180.2892 308.1920 14.11109380792510
Source of the keplerian elements: AFSPC